Locarno Monti, Switzerland

12:59 AM CEST on August 28, 2016 (GMT +0200)
Locarno Monti

Weather History for 06760 - March, 2013

Change the Weather History Date:

Thursday, March 14, 2013

  Actual Average Record
Temperature  
Mean Temperature 44 °F -  
Max Temperature 50 °F 57 °F - ()
Min Temperature 37 °F 38 °F - ()
Degree Days  
Heating Degree Days 21    
Moisture  
Dew Point 7 °F    
Average Humidity 12    
Maximum Humidity 26    
Minimum Humidity 4    
Precipitation  
Precipitation 0.00 in - - ()
Sea Level Pressure  
Sea Level Pressure 29.46 in    
Wind  
Wind Speed 5 mph ()    
Max Wind Speed 13 mph    
Max Gust Speed -    
T = Trace of Precipitation, MM = Missing Value Source: Averaged Metar Reports

Daily Weather History Graph

Daily Weather History Graph

Search for Another Location

Airport or City:

Trip Planner

Search our weather history database for the weather conditions in past years. The results will help you decide how hot, cold, wet, or windy it might be!

Date:

Astronomy

Mar. 14, 2013 Rise Set
Actual Time 6:39 AM CET 6:29 PM CET
Civil Twilight 6:09 AM CET 6:59 PM CET
Nautical Twilight 5:34 AM CET 7:34 PM CET
Astronomical Twilight 4:59 AM CET 8:09 PM CET
Moon 7:32 AM CET (3/14) 9:42 PM CET (3/14)
Length of Visible Light 12h 49m
Length of Day
11h 49m
Waxing Crescent, 7% of the Moon is Illuminated
Mar 14
Waxing Crescent
Mar 19
First Quarter
Mar 27
Full
Apr 3
Last Quarter
Apr 10
New

Hourly Weather History & Observations

Time (CET) Temp. Dew Point Humidity Pressure Visibility Wind Dir Wind Speed Gust Speed Precip Events Conditions
12:00 AM 46 °F 16 °F 17% 29.41 in - East 6.9 mph - -  
1:00 AM 46 °F 15 °F 17% 29.41 in - NNE 4.6 mph - -  
2:00 AM 42 °F 18 °F 24% 29.42 in - West 2.3 mph - -  
3:00 AM 41 °F 18 °F 26% 29.42 in - West 2.3 mph - -  
5:00 AM 41 °F 13 °F 19% 29.42 in - South 2.3 mph - -  
6:00 AM 40 °F 11 °F 18% 29.42 in - ESE 2.3 mph - -  
7:00 AM 42 °F 6 °F 12% 29.43 in 37 mi North 8.1 mph - -   Scattered Clouds
8:00 AM 43 °F 6 °F 11% 29.44 in - SSE 5.8 mph - -  
9:00 AM 44 °F 6 °F 10% 29.43 in - West 6.9 mph - -  
11:00 AM 48 °F 6 °F 8% 29.43 in - South 6.9 mph - -  
12:00 PM 48 °F 5 °F 7% 29.43 in - SSE 8.1 mph - -  
1:00 PM 46 °F -5 °F 4% 29.43 in 37 mi SSW 6.9 mph - -   Scattered Clouds
2:00 PM 47 °F 7 °F 9% 29.41 in - South 12.7 mph - -  
3:00 PM 48 °F 7 °F 9% 29.41 in - SSE 10.4 mph - -  
5:00 PM 44 °F 2 °F 8% 29.44 in - South 11.5 mph - -  
6:00 PM 41 °F 4 °F 10% 29.49 in - SE 8.1 mph - -  
7:00 PM 39 °F 2 °F 10% 29.54 in 37 mi NW 3.5 mph - -   Clear
8:00 PM 38 °F 0 °F 9% 29.58 in - North 5.8 mph - -  
9:00 PM 38 °F -0 °F 9% 29.60 in - South 3.5 mph - -  
11:00 PM 37 °F -2 °F 9% 29.61 in - North 8.1 mph - -